Time,TemperatureF,DewpointF,PressureIn,WindDirection,WindDirectionDegrees,WindSpeedMPH,WindSpeedGustMPH,Humidity,HourlyPrecipIn,Conditions,Clouds,dailyrainin,SolarRadiationWatts/m^2,SoftwareType,DateUTC
2013-08-20 00:07:00,71.5,29.0,29.84,NW,319,0.0,-999.0,21,-99.99,,,0.00,0,weatherlink.com 1.10,2013-08-20 06:07:00,
2013-08-20 00:22:00,71.4,27.0,29.85,NW,323,0.0,-999.0,19,-99.99,,,0.00,0,weatherlink.com 1.10,2013-08-20 06:22:00,
2013-08-20 00:37:00,71.5,27.0,29.85,North,350,0.0,-999.0,19,-99.99,,,0.00,0,weatherlink.com 1.10,2013-08-20 06:37:00,
2013-08-20 00:52:00,71.6,26.0,29.85,North,350,0.0,-999.0,18,-99.99,,,0.00,0,weatherlink.com 1.10,2013-08-20 06:52:00,
2013-08-20 01:07:00,72.4,25.0,29.85,WNW,287,4.0,-999.0,17,-99.99,,,0.00,0,weatherlink.com 1.10,2013-08-20 07:07:00,
2013-08-20 01:23:00,71.9,26.0,29.85,WNW,293,3.0,-999.0,18,-99.99,,,0.00,0,weatherlink.com 1.10,2013-08-20 07:23:00,
2013-08-20 01:38:00,71.6,27.0,29.85,WNW,302,2.0,-999.0,19,-99.99,,,0.00,0,weatherlink.com 1.10,2013-08-20 07:38:00,
2013-08-20 01:53:00,71.1,27.0,29.85,WNW,285,3.0,-999.0,19,-99.99,,,0.00,0,weatherlink.com 1.10,2013-08-20 07:53:00,
2013-08-20 02:08:00,70.7,28.0,29.85,WNW,290,5.0,-999.0,20,-99.99,,,0.00,0,weatherlink.com 1.10,2013-08-20 08:08:00,
2013-08-20 02:23:00,70.4,29.0,29.84,NW,313,0.0,-999.0,21,-99.99,,,0.00,0,weatherlink.com 1.10,2013-08-20 08:23:00,
2013-08-20 02:38:00,68.8,30.0,29.84,West,259,0.0,-999.0,24,-99.99,,,0.00,0,weatherlink.com 1.10,2013-08-20 08:38:00,
2013-08-20 02:53:00,68.7,27.0,29.85,WSW,250,0.0,-999.0,21,-99.99,,,0.00,0,weatherlink.com 1.10,2013-08-20 08:53:00,
2013-08-20 03:08:00,70.6,29.0,29.84,WSW,240,2.0,-999.0,21,-99.99,,,0.00,0,weatherlink.com 1.10,2013-08-20 09:08:00,
2013-08-20 03:23:00,71.1,28.0,29.84,WNW,290,0.0,-999.0,20,-99.99,,,0.00,0,weatherlink.com 1.10,2013-08-20 09:23:00,
2013-08-20 03:38:00,70.5,30.0,29.84,NW,304,0.0,-999.0,22,-99.99,,,0.00,0,weatherlink.com 1.10,2013-08-20 09:38:00,
2013-08-20 03:53:00,69.1,31.0,29.84,NW,320,2.0,-999.0,24,-99.99,,,0.00,0,weatherlink.com 1.10,2013-08-20 09:53:00,
2013-08-20 04:08:00,68.3,32.0,29.82,NNW,338,4.0,-999.0,26,-99.99,,,0.00,0,weatherlink.com 1.10,2013-08-20 10:08:00,
2013-08-20 04:23:00,68.8,32.0,29.82,North,9,5.0,-999.0,26,-99.99,,,0.00,0,weatherlink.com 1.10,2013-08-20 10:23:00,
2013-08-20 04:38:00,67.1,31.0,29.84,SW,217,0.0,-999.0,26,-99.99,,,0.00,0,weatherlink.com 1.10,2013-08-20 10:38:00,
2013-08-20 04:53:00,67.5,31.0,29.85,SSE,156,4.0,-999.0,26,-99.99,,,0.00,0,weatherlink.com 1.10,2013-08-20 10:53:00,
2013-08-20 05:08:00,68.3,30.0,29.84,West,269,3.0,-999.0,24,-99.99,,,0.00,0,weatherlink.com 1.10,2013-08-20 11:08:00,
2013-08-20 05:23:00,68.6,30.0,29.85,WSW,246,2.0,-999.0,24,-99.99,,,0.00,0,weatherlink.com 1.10,2013-08-20 11:23:00,
2013-08-20 05:38:00,69.8,30.0,29.86,South,182,0.0,-999.0,23,-99.99,,,0.00,0,weatherlink.com 1.10,2013-08-20 11:38:00,
2013-08-20 05:53:00,70.3,31.0,29.85,West,263,0.0,-999.0,23,-99.99,,,0.00,0,weatherlink.com 1.10,2013-08-20 11:53:00,
2013-08-20 06:08:00,70.4,33.0,29.84,NNW,328,3.0,-999.0,25,-99.99,,,0.00,0,weatherlink.com 1.10,2013-08-20 12:08:00,
2013-08-20 06:23:00,71.4,33.0,29.84,NNE,15,3.0,-999.0,24,-99.99,,,0.00,0,weatherlink.com 1.10,2013-08-20 12:23:00,
2013-08-20 06:38:00,70.7,34.0,29.85,NW,313,4.0,-999.0,26,-99.99,,,0.00,9,weatherlink.com 1.10,2013-08-20 12:38:00,
2013-08-20 06:53:00,70.2,34.0,29.86,SSE,154,0.0,-999.0,26,-99.99,,,0.00,14,weatherlink.com 1.10,2013-08-20 12:53:00,
2013-08-20 07:08:00,71.5,33.0,29.86,SSE,148,2.0,-999.0,24,-99.99,,,0.00,18,weatherlink.com 1.10,2013-08-20 13:08:00,
2013-08-20 07:23:00,73.0,34.0,29.87,South,175,0.0,-999.0,24,-99.99,,,0.00,23,weatherlink.com 1.10,2013-08-20 13:23:00,
2013-08-20 07:38:00,72.4,35.0,29.86,South,177,2.0,-999.0,25,-99.99,,,0.00,40,weatherlink.com 1.10,2013-08-20 13:38:00,
2013-08-20 07:53:00,73.3,34.0,29.85,South,175,0.0,-999.0,24,-99.99,,,0.00,100,weatherlink.com 1.10,2013-08-20 13:53:00,
2013-08-20 08:08:00,73.8,36.0,29.87,WSW,244,2.0,-999.0,25,-99.99,,,0.00,162,weatherlink.com 1.10,2013-08-20 14:08:00,
2013-08-20 08:23:00,74.3,36.0,29.86,WNW,286,0.0,-999.0,25,-99.99,,,0.00,336,weatherlink.com 1.10,2013-08-20 14:23:00,
2013-08-20 08:38:00,75.2,38.0,29.87,WNW,286,0.0,-999.0,26,-99.99,,,0.00,171,weatherlink.com 1.10,2013-08-20 14:38:00,
2013-08-20 08:53:00,75.4,38.0,29.87,SW,233,0.0,-999.0,26,-99.99,,,0.00,62,weatherlink.com 1.10,2013-08-20 14:53:00,
2013-08-20 09:08:00,74.6,35.0,29.87,West,263,1.0,-999.0,24,-99.99,,,0.00,70,weatherlink.com 1.10,2013-08-20 15:08:00,
2013-08-20 09:23:00,73.4,40.0,29.88,South,185,2.0,-999.0,30,-99.99,,,0.00,56,weatherlink.com 1.10,2013-08-20 15:23:00,
2013-08-20 09:38:00,73.0,40.0,29.89,SSW,206,4.0,-999.0,30,-99.99,,,0.00,81,weatherlink.com 1.10,2013-08-20 15:38:00,
2013-08-20 09:53:00,73.3,38.0,29.89,SW,221,2.0,-999.0,28,-99.99,,,0.00,98,weatherlink.com 1.10,2013-08-20 15:53:00,
2013-08-20 10:08:00,74.6,38.0,29.89,WNW,288,3.0,-999.0,27,-99.99,,,0.00,109,weatherlink.com 1.10,2013-08-20 16:08:00,
2013-08-20 10:23:00,75.5,38.0,29.88,WNW,294,4.0,-999.0,26,-99.99,,,0.00,144,weatherlink.com 1.10,2013-08-20 16:23:00,
2013-08-20 10:38:00,76.1,43.0,29.89,South,180,3.0,-999.0,31,-99.99,,,0.00,195,weatherlink.com 1.10,2013-08-20 16:38:00,
2013-08-20 10:54:00,76.5,39.0,29.89,SSW,213,3.0,-999.0,26,-99.99,,,0.00,188,weatherlink.com 1.10,2013-08-20 16:54:00,
2013-08-20 11:09:00,77.3,40.0,29.89,SW,227,0.0,-999.0,26,-99.99,,,0.00,93,weatherlink.com 1.10,2013-08-20 17:09:00,
2013-08-20 11:24:00,77.4,44.0,29.89,WSW,253,5.0,-999.0,31,-99.99,,,0.00,60,weatherlink.com 1.10,2013-08-20 17:24:00,
2013-08-20 11:39:00,76.6,46.0,29.89,SW,223,5.0,-999.0,34,-99.99,,,0.00,84,weatherlink.com 1.10,2013-08-20 17:39:00,
2013-08-20 11:54:00,76.7,44.0,29.88,SW,229,0.0,-999.0,31,-99.99,,,0.00,195,weatherlink.com 1.10,2013-08-20 17:54:00,
2013-08-20 12:09:00,77.5,43.0,29.87,East,90,2.0,-999.0,29,-99.99,,,0.00,285,weatherlink.com 1.10,2013-08-20 18:09:00,
2013-08-20 12:24:00,78.6,45.0,29.86,ESE,107,0.0,-999.0,30,-99.99,,,0.00,301,weatherlink.com 1.10,2013-08-20 18:24:00,
2013-08-20 12:39:00,79.8,44.0,29.86,WSW,242,9.0,-999.0,28,-99.99,,,0.00,594,weatherlink.com 1.10,2013-08-20 18:39:00,
2013-08-20 12:54:00,80.2,44.0,29.85,West,276,3.0,-999.0,28,-99.99,,,0.00,432,weatherlink.com 1.10,2013-08-20 18:54:00,
2013-08-20 13:09:00,81.3,44.0,29.85,SW,225,0.0,-999.0,27,-99.99,,,0.00,768,weatherlink.com 1.10,2013-08-20 19:09:00,
2013-08-20 13:24:00,82.4,46.0,29.84,SW,235,5.0,-999.0,28,-99.99,,,0.00,1062,weatherlink.com 1.10,2013-08-20 19:24:00,
2013-08-20 13:39:00,84.7,45.0,29.83,WNW,289,0.0,-999.0,25,-99.99,,,0.00,921,weatherlink.com 1.10,2013-08-20 19:39:00,
2013-08-20 13:54:00,85.3,45.0,29.83,SSW,202,1.0,-999.0,24,-99.99,,,0.00,810,weatherlink.com 1.10,2013-08-20 19:54:00,
2013-08-20 14:09:00,86.2,45.0,29.82,SSW,205,0.0,-999.0,24,-99.99,,,0.00,761,weatherlink.com 1.10,2013-08-20 20:09:00,
2013-08-20 14:24:00,85.6,44.0,29.82,SW,230,6.0,-999.0,23,-99.99,,,0.00,675,weatherlink.com 1.10,2013-08-20 20:24:00,
2013-08-20 14:39:00,85.8,43.0,29.81,SSW,213,1.0,-999.0,22,-99.99,,,0.00,752,weatherlink.com 1.10,2013-08-20 20:39:00,
2013-08-20 14:54:00,86.3,42.0,29.81,WSW,241,4.0,-999.0,21,-99.99,,,0.00,686,weatherlink.com 1.10,2013-08-20 20:54:00,
2013-08-20 15:09:00,86.1,44.0,29.81,South,170,0.0,-999.0,23,-99.99,,,0.00,531,weatherlink.com 1.10,2013-08-20 21:09:00,
2013-08-20 15:24:00,87.6,42.0,29.80,North,5,6.0,-999.0,20,-99.99,,,0.00,661,weatherlink.com 1.10,2013-08-20 21:24:00,
2013-08-20 15:39:00,87.9,41.0,29.79,ENE,62,5.0,-999.0,19,-99.99,,,0.00,294,weatherlink.com 1.10,2013-08-20 21:39:00,
2013-08-20 15:54:00,87.5,42.0,29.79,NNW,348,0.0,-999.0,20,-99.99,,,0.00,309,weatherlink.com 1.10,2013-08-20 21:54:00,
2013-08-20 16:09:00,87.9,42.0,29.79,NNW,341,0.0,-999.0,20,-99.99,,,0.00,599,weatherlink.com 1.10,2013-08-20 22:09:00,
2013-08-20 16:24:00,88.2,41.0,29.78,WNW,303,0.0,-999.0,19,-99.99,,,0.00,188,weatherlink.com 1.10,2013-08-20 22:24:00,
2013-08-20 16:39:00,87.8,44.0,29.78,NW,317,0.0,-999.0,22,-99.99,,,0.00,214,weatherlink.com 1.10,2013-08-20 22:39:00,
2013-08-20 16:54:00,86.4,43.0,29.78,ESE,109,0.0,-999.0,22,-99.99,,,0.00,232,weatherlink.com 1.10,2013-08-20 22:54:00,
2013-08-20 17:09:00,85.8,43.0,29.78,SW,215,0.0,-999.0,22,-99.99,,,0.00,202,weatherlink.com 1.10,2013-08-20 23:09:00,
2013-08-20 17:24:00,85.8,43.0,29.78,SE,142,0.0,-999.0,22,-99.99,,,0.00,156,weatherlink.com 1.10,2013-08-20 23:24:00,
2013-08-20 17:39:00,85.7,43.0,29.78,SSW,201,0.0,-999.0,22,-99.99,,,0.00,118,weatherlink.com 1.10,2013-08-20 23:39:00,
2013-08-20 17:54:00,85.4,42.0,29.77,South,188,0.0,-999.0,22,-99.99,,,0.00,98,weatherlink.com 1.10,2013-08-20 23:54:00,
2013-08-20 18:09:00,85.4,41.0,29.77,SSE,159,0.0,-999.0,21,-99.99,,,0.00,77,weatherlink.com 1.10,2013-08-21 00:09:00,
2013-08-20 18:24:00,82.9,47.0,29.78,SW,215,3.0,-999.0,28,-99.99,,,0.00,63,weatherlink.com 1.10,2013-08-21 00:24:00,
2013-08-20 18:39:00,81.8,46.0,29.77,South,180,0.0,-999.0,28,-99.99,,,0.00,54,weatherlink.com 1.10,2013-08-21 00:39:00,
2013-08-20 18:54:00,82.0,44.0,29.77,SSE,167,5.0,-999.0,26,-99.99,,,0.00,51,weatherlink.com 1.10,2013-08-21 00:54:00,
2013-08-20 19:09:00,81.8,45.0,29.77,South,169,0.0,-999.0,27,-99.99,,,0.00,40,weatherlink.com 1.10,2013-08-21 01:09:00,
2013-08-20 19:24:00,81.3,44.0,29.77,South,171,0.0,-999.0,27,-99.99,,,0.00,33,weatherlink.com 1.10,2013-08-21 01:24:00,
2013-08-20 19:39:00,81.0,44.0,29.78,SSE,150,0.0,-999.0,27,-99.99,,,0.00,19,weatherlink.com 1.10,2013-08-21 01:39:00,
2013-08-20 19:54:00,80.3,43.0,29.78,SSE,151,0.0,-999.0,27,-99.99,,,0.00,7,weatherlink.com 1.10,2013-08-21 01:54:00,
2013-08-20 20:09:00,79.7,42.0,29.79,SSE,151,0.0,-999.0,26,-99.99,,,0.00,0,weatherlink.com 1.10,2013-08-21 02:09:00,
2013-08-20 20:24:00,79.6,43.0,29.80,SSW,192,0.0,-999.0,27,-99.99,,,0.00,0,weatherlink.com 1.10,2013-08-21 02:24:00,
2013-08-20 20:40:00,79.3,42.0,29.80,SW,225,0.0,-999.0,26,-99.99,,,0.00,0,weatherlink.com 1.10,2013-08-21 02:40:00,
2013-08-20 20:55:00,79.1,41.0,29.80,SW,223,0.0,-999.0,26,-99.99,,,0.00,0,weatherlink.com 1.10,2013-08-21 02:55:00,
2013-08-20 21:10:00,79.1,40.0,29.81,SSW,213,0.0,-999.0,25,-99.99,,,0.00,0,weatherlink.com 1.10,2013-08-21 03:10:00,
2013-08-20 21:25:00,79.3,39.0,29.82,West,265,0.0,-999.0,24,-99.99,,,0.00,0,weatherlink.com 1.10,2013-08-21 03:25:00,
2013-08-20 21:40:00,79.1,40.0,29.83,West,261,1.0,-999.0,25,-99.99,,,0.00,0,weatherlink.com 1.10,2013-08-21 03:40:00,
2013-08-20 21:55:00,78.7,42.0,29.82,West,263,5.0,-999.0,27,-99.99,,,0.00,0,weatherlink.com 1.10,2013-08-21 03:55:00,
2013-08-20 22:10:00,78.3,43.0,29.82,West,263,5.0,-999.0,28,-99.99,,,0.00,0,weatherlink.com 1.10,2013-08-21 04:10:00,
2013-08-20 22:25:00,78.4,44.0,29.83,WSW,252,12.0,-999.0,29,-99.99,,,0.00,0,weatherlink.com 1.10,2013-08-21 04:25:00,
2013-08-20 22:40:00,78.1,44.0,29.84,SW,222,6.0,-999.0,30,-99.99,,,0.00,0,weatherlink.com 1.10,2013-08-21 04:40:00,
2013-08-20 22:55:00,80.5,44.0,29.83,SSW,213,0.0,-999.0,28,-99.99,,,0.00,0,weatherlink.com 1.10,2013-08-21 04:55:00,
2013-08-20 23:10:00,79.5,45.0,29.84,ESE,121,4.0,-999.0,29,-99.99,,,0.00,0,weatherlink.com 1.10,2013-08-21 05:10:00,
2013-08-20 23:25:00,80.3,42.0,29.83,SSW,198,2.0,-999.0,26,-99.99,,,0.00,0,weatherlink.com 1.10,2013-08-21 05:25:00,
2013-08-20 23:40:00,80.7,41.0,29.83,SW,234,5.0,-999.0,24,-99.99,,,0.00,0,weatherlink.com 1.10,2013-08-21 05:40:00,
2013-08-20 23:55:00,81.2,42.0,29.83,SW,217,12.0,-999.0,25,-99.99,,,0.00,0,weatherlink.com 1.10,2013-08-21 05:55:00,